Location: Black Creek
(40.9000°S, 175.5500°E)
Time: 02:43:38
(UTC+00:00)

Cosmos 2184 Rocket - Pass Details

Date: 04 August 2024
Orbit: 958 x 1002 km, 82.9° (Epoch: 07 September)

Event Time Altitude Azimuth Distance (km) Brightness Sun altitude
Rises 18:46:37 0° 353° (N) 3,655 7.1 -6.8°
Reaches altitude 10° 18:49:06 10° 352° (N) 2,722 6.5 -6.4°
Maximum altitude 18:55:21 83° 263° (W) 1,004 4.1 -5.3°
Drops below altitude 10° 19:01:47 10° 174° (S) 2,786 6.3 -4.1°
Sets 19:04:21 0° 173° (S) 3,747 6.9 -3.7°
